Date,TemperatureHighF,TemperatureAvgF,TemperatureLowF,DewpointHighF,DewpointAvgF,DewpointLowF,HumidityHigh,HumidityAvg,HumidityLow,PressureMaxIn,PressureMinIn,WindSpeedMaxMPH,WindSpeedAvgMPH,GustSpeedMaxMPH,PrecipitationSumIn
2013-1-1,50.1,45.0,39.3,38.8,33.4,26.0,73,64,46,29.99,29.86,1,0,0,0.00
2013-1-2,41.4,37.4,32.6,34.1,31.6,25.3,86,79,73,30.20,29.96,0,0,0,0.00
2013-1-3,39.9,33.5,26.6,25.5,23.5,20.5,83,67,53,30.23,30.13,0,0,0,0.00
2013-1-4,44.9,34.4,27.4,26.7,22.4,20.1,77,62,45,30.22,30.11,2,0,5,0.00
2013-1-5,49.0,39.2,29.2,33.2,23.9,19.6,80,55,37,30.36,30.16,1,0,3,0.00
2013-1-6,49.2,41.1,30.3,35.2,31.8,28.3,93,71,51,30.16,30.02,3,0,8,0.01
2013-1-7,46.5,40.4,28.0,33.2,29.2,24.6,87,65,52,30.43,30.13,4,0,6,0.00
2013-1-8,50.7,35.2,22.6,37.4,29.3,20.4,93,80,58,30.42,30.32,2,0,5,0.00
2013-1-9,60.6,44.2,27.1,49.6,38.0,25.3,94,80,39,30.38,30.25,3,0,5,0.00
2013-1-10,58.2,48.3,33.9,35.0,31.2,27.4,79,53,38,30.55,30.38,2,0,4,0.00
2013-1-11,44.3,41.7,37.7,41.8,37.5,31.0,97,85,67,30.45,30.07,0,0,1,0.04
2013-1-12,55.5,45.3,39.8,51.0,43.9,39.3,99,95,83,30.15,30.08,1,0,1,0.00
2013-1-13,63.1,52.8,45.8,60.1,51.7,44.7,99,96,89,30.11,29.95,1,0,2,0.01
2013-1-14,60.1,53.9,42.7,59.8,52.0,41.8,99,93,80,30.26,29.94,2,0,3,0.12
2013-1-15,42.4,38.6,37.1,41.6,37.9,36.6,98,97,96,30.31,30.11,1,0,3,1.05
2013-1-16,42.5,39.1,36.0,41.7,38.6,35.5,98,98,96,30.13,29.86,1,0,2,0.31
2013-1-17,44.4,39.4,33.9,44.1,39.0,32.9,99,98,96,30.10,29.94,1,0,3,0.49
2013-1-18,42.2,34.1,26.9,34.0,26.8,20.5,98,76,43,30.47,30.09,1,0,5,0.01
2013-1-19,50.4,36.9,24.0,37.2,29.5,22.3,94,76,56,30.42,30.00,3,0,6,0.00
2013-1-20,59.0,47.0,33.8,35.8,27.4,12.0,83,49,26,30.04,29.85,5,1,7,0.00
2013-1-21,51.6,39.0,29.5,27.2,18.5,11.4,71,44,30,30.05,29.77,3,0,7,0.00
2013-1-22,32.1,23.9,17.5,11.9,2.8,-0.9,50,40,30,30.28,29.93,5,1,10,0.00
2013-1-23,31.7,21.7,9.6,18.7,6.6,0.8,86,54,32,30.34,30.11,2,0,7,0.00
2013-1-24,27.5,21.2,14.2,19.0,11.1,3.7,91,67,41,30.53,30.05,5,1,10,0.03
2013-1-25,24.7,18.6,10.9,19.6,13.4,3.6,89,80,58,30.53,30.06,1,0,4,0.00
2013-1-26,36.9,27.7,22.0,28.3,22.5,19.0,89,81,66,30.43,30.06,1,0,2,0.03
2013-1-27,38.3,28.4,18.7,27.3,23.1,16.5,92,81,62,30.59,30.42,1,0,4,0.00
2013-1-28,47.8,38.5,30.7,45.3,35.7,26.1,96,90,82,30.47,30.07,1,0,4,0.17
2013-1-29,73.3,60.1,47.4,58.7,52.2,44.6,92,76,60,30.10,29.94,2,1,7,0.00
2013-1-30,68.0,61.4,56.3,63.8,58.4,51.5,99,90,77,29.94,29.22,5,1,17,2.36
2013-1-31,57.7,42.0,32.0,57.3,29.3,18.3,99,62,45,29.90,29.22,5,2,13,0.08
2013-2-1,33.4,27.5,17.5,26.8,11.8,4.9,82,52,37,30.38,29.76,7,2,15,0.00
2013-2-2,35.0,24.9,16.6,26.3,16.5,5.9,93,71,48,30.38,29.99,1,0,3,0.00
2013-2-3,40.1,30.9,23.5,31.1,24.5,17.1,93,79,53,29.99,29.81,3,0,6,0.01
2013-2-4,38.4,31.5,22.5,24.4,19.3,13.2,82,61,51,30.09,29.88,2,0,5,0.00
2013-2-5,56.2,39.8,28.3,38.5,30.3,22.0,86,70,48,29.90,29.81,3,0,6,0.00
2013-2-6,53.5,39.7,27.6,34.0,29.5,25.4,93,69,43,30.33,29.90,3,0,8,0.00
2013-2-7,40.1,35.6,29.4,30.2,27.7,24.9,86,73,62,30.40,30.14,0,0,1,0.00
2013-2-8,49.8,38.9,32.8,42.1,33.1,24.8,96,81,58,30.14,29.74,7,1,15,0.27
2013-2-9,47.6,37.8,28.2,25.1,18.2,13.7,62,46,29,30.35,29.96,6,2,13,0.00
2013-2-10,45.0,33.2,19.5,32.9,21.4,15.1,90,64,41,30.48,30.21,2,0,6,0.02
2013-2-11,58.0,46.7,35.0,52.6,40.7,25.5,98,83,31,30.21,29.74,4,0,8,0.03
2013-2-12,60.6,50.4,42.6,33.2,29.2,25.9,64,44,31,29.96,29.80,5,1,8,0.00
2013-2-13,44.2,39.2,33.7,36.8,32.7,27.9,96,78,60,29.90,29.62,1,0,2,0.04
2013-2-14,52.2,38.2,27.6,34.1,29.4,26.1,97,74,42,30.01,29.78,2,0,4,0.01
2013-2-15,61.1,41.8,25.5,40.6,32.2,23.2,92,72,44,30.03,29.85,4,0,7,0.00
2013-2-16,41.4,37.0,29.6,36.3,28.6,16.8,94,72,55,29.98,29.81,3,0,5,0.00
2013-2-17,31.5,26.9,22.4,17.2,9.7,5.9,65,49,36,30.22,29.86,6,2,14,0.00
2013-2-18,47.3,31.7,16.5,23.8,15.9,7.2,83,54,31,30.37,30.15,2,0,6,0.00
2013-2-19,47.5,39.2,28.6,42.7,31.3,20.7,92,75,45,30.14,29.73,3,1,6,0.05
2013-2-20,45.6,36.5,29.9,22.1,17.8,14.5,57,47,32,30.13,29.86,5,1,11,0.00
2013-2-21,45.0,33.6,24.2,22.3,18.2,14.3,70,54,38,30.31,30.11,2,0,5,0.00
2013-2-22,37.9,33.7,31.6,29.3,24.9,20.2,77,70,61,30.35,30.21,0,0,1,0.01
2013-3-5,47.7,40.3,32.7,35.4,32.4,29.7,95,76,54,29.88,29.72,1,0,5,0.12
2013-3-6,32.8,32.6,32.6,31.9,31.8,31.4,97,97,95,29.72,29.57,0,0,0,0.01
2013-3-7,40.7,38.8,37.1,28.8,27.9,27.2,69,65,59,30.18,30.17,4,1,8,0.17
2013-3-8,46.6,40.3,36.4,31.0,28.3,24.8,73,62,53,30.27,30.16,6,2,11,0.00
2013-3-9,59.7,44.2,30.7,34.8,29.4,25.6,84,58,35,30.33,30.23,2,0,4,0.00
2013-3-10,65.2,46.2,28.0,38.2,30.8,25.4,92,60,33,30.30,30.16,2,0,4,0.00
2013-3-11,59.0,48.7,34.6,51.6,39.5,27.0,92,71,44,30.20,29.87,2,0,7,0.01
2013-3-12,65.2,55.5,42.7,59.2,47.8,30.6,99,78,49,29.93,29.67,3,1,7,1.23
2013-3-13,50.4,41.4,33.2,33.3,26.6,18.6,84,57,39,30.09,29.89,6,2,11,0.00
2013-3-14,50.9,39.1,28.8,23.0,18.9,16.1,63,45,29,30.16,30.03,6,2,12,0.00
2013-3-15,61.2,46.2,29.1,39.2,27.9,16.9,76,49,40,30.10,29.77,3,0,6,0.00
2013-3-16,69.4,51.9,41.3,56.6,44.6,34.8,95,77,50,29.85,29.57,3,0,5,0.29
2013-3-17,43.9,37.7,33.0,40.5,35.8,31.9,96,93,87,30.25,29.84,2,0,3,0.05
2013-3-18,33.6,32.9,32.5,32.6,32.1,31.7,97,97,96,30.27,29.89,0,0,1,0.41
2013-3-19,60.8,43.9,32.9,46.4,28.9,11.1,99,65,22,29.95,29.73,6,1,13,0.23
2013-3-20,55.5,43.9,32.9,24.4,17.5,12.4,47,35,26,30.00,29.74,4,1,9,0.00
2013-3-21,40.4,34.4,27.9,29.9,17.6,11.0,72,51,36,29.92,29.74,6,2,10,0.00
2013-3-22,51.9,37.3,24.4,25.5,18.0,11.8,65,47,31,29.99,29.86,3,0,6,0.00
2013-3-23,57.7,41.6,25.5,27.7,22.7,17.5,84,50,28,30.04,29.87,2,0,8,0.00
2013-3-24,40.9,35.4,32.4,31.8,27.0,21.6,96,73,48,29.98,29.63,2,0,3,0.01
2013-3-25,39.6,35.1,31.3,36.4,32.9,29.5,97,92,83,29.70,29.51,1,0,3,0.55
2013-3-26,46.0,39.0,30.8,34.4,29.7,27.2,90,70,53,30.03,29.71,5,1,8,0.05
2013-3-27,50.4,41.0,33.0,30.8,27.6,25.3,75,60,43,30.15,30.03,7,2,13,0.00
2013-3-28,49.7,42.2,35.7,30.2,27.5,25.0,73,56,46,30.24,30.11,6,2,12,0.00
2013-3-29,60.0,44.5,31.1,36.3,29.9,26.3,89,60,33,30.27,30.12,3,0,6,0.00
2013-3-30,63.8,46.6,29.0,36.9,30.7,25.8,91,58,31,30.22,30.05,2,0,5,0.00
2013-3-31,54.3,46.4,41.5,50.2,40.4,30.6,97,80,55,30.07,29.73,1,0,4,0.02
2013-4-1,64.9,53.3,43.1,47.4,39.4,23.7,95,61,40,29.98,29.74,5,1,12,0.00
2013-4-2,54.5,44.0,34.8,24.4,19.3,14.7,56,38,23,30.16,29.98,5,1,10,0.00
2013-4-3,56.7,41.4,25.6,25.7,19.2,14.9,82,45,22,30.35,30.16,5,1,8,0.00
2013-4-4,48.6,37.5,27.7,34.3,23.5,16.1,95,60,32,30.41,30.04,1,0,4,0.21
2013-4-5,65.9,49.7,35.4,45.8,35.8,31.3,97,66,31,30.04,29.82,3,1,7,0.27
2013-4-6,60.4,49.6,39.0,31.7,25.9,19.4,62,41,24,30.28,30.01,3,0,4,0.00
2013-4-7,73.7,55.8,37.1,49.2,39.9,30.0,85,57,39,30.23,29.97,3,1,5,0.00
2013-4-8,82.8,66.0,46.2,54.3,48.7,41.6,86,57,34,30.06,29.91,3,0,7,0.00
2013-4-9,88.4,73.6,57.8,61.2,55.6,51.3,81,55,37,30.06,29.92,2,0,6,0.00
2013-4-10,93.9,78.7,63.6,62.9,57.6,53.1,70,50,34,29.96,29.76,2,1,7,0.00
2013-4-11,88.5,74.9,61.8,64.5,59.3,55.4,81,60,41,29.83,29.68,3,1,7,0.00
2013-4-12,81.3,69.5,61.6,69.1,62.9,58.3,98,81,47,29.68,29.51,4,1,8,0.98
2013-4-13,74.0,66.9,59.0,43.4,35.5,30.2,35,31,28,29.92,29.78,2,0,6,0.00
2013-4-14,77.6,62.3,47.1,48.0,40.4,30.4,71,46,32,30.06,29.93,2,0,6,0.00
2013-4-15,61.2,56.4,51.9,57.0,53.1,45.8,97,89,60,30.24,30.05,1,0,2,0.30
2013-4-16,74.5,61.9,54.0,64.5,57.9,53.4,98,88,68,30.28,30.12,2,0,4,0.02
2013-4-17,85.4,68.9,58.5,65.8,61.3,57.4,97,79,46,30.18,30.05,3,0,5,0.03
2013-4-18,78.7,66.2,59.8,67.7,60.4,57.4,98,83,57,30.16,29.95,3,0,8,0.06
2013-4-19,74.7,66.6,57.6,68.1,61.9,43.8,97,85,60,29.94,29.58,3,1,6,0.55
2013-4-20,64.2,53.9,45.1,44.4,33.9,27.8,67,48,30,30.28,29.71,3,1,10,0.00
2013-4-21,56.6,46.2,34.9,37.6,33.2,29.7,87,62,43,30.55,30.28,2,0,4,0.00
2013-4-22,60.5,46.6,31.7,42.1,35.7,29.4,93,68,46,30.54,30.33,2,0,5,0.00
2013-4-23,67.7,54.3,46.7,50.5,44.3,39.2,88,70,52,30.35,30.08,1,0,3,0.00
2013-4-24,79.8,59.8,41.3,60.6,51.4,39.7,97,77,46,30.09,29.79,4,1,7,0.11
2013-4-25,58.7,57.4,55.1,50.7,47.5,43.7,77,69,64,30.01,29.96,3,2,4,0.00
2013-4-29,64.5,59.6,54.6,60.5,57.5,54.3,99,93,85,30.05,29.97,1,0,2,0.23
2013-4-30,63.9,58.3,54.5,59.0,55.7,53.2,98,91,81,30.25,30.04,1,0,4,0.01
2013-5-1,72.8,60.6,52.4,53.5,49.8,40.4,98,71,38,30.37,30.23,1,0,3,0.02
2013-5-2,71.0,58.1,46.8,51.9,47.6,43.2,89,69,43,30.38,30.27,1,0,3,0.00
2013-5-3,68.9,54.8,42.7,54.1,47.4,41.2,97,78,50,30.34,30.21,1,0,5,0.00
2013-5-4,65.2,53.0,43.2,53.6,46.6,40.5,91,80,64,30.29,30.12,1,0,2,0.00
2013-5-5,65.1,52.7,41.3,50.0,45.1,38.6,93,77,55,30.20,30.07,1,0,3,0.00
2013-5-6,58.5,53.9,50.5,58.2,52.3,48.3,99,94,79,30.12,29.94,1,0,3,0.36
2013-5-7,65.2,58.0,54.1,64.2,57.6,53.6,100,99,93,29.95,29.82,2,0,3,1.11
2013-5-8,61.9,56.3,50.3,60.3,55.5,49.8,100,97,87,29.98,29.91,1,0,1,0.11
2013-5-9,80.0,60.9,44.5,64.8,54.3,44.0,100,82,43,30.00,29.91,2,0,5,0.02
2013-5-10,85.3,67.9,52.4,66.2,59.6,51.3,98,78,46,30.00,29.83,3,0,5,0.22
2013-5-11,81.2,68.7,61.1,67.4,62.1,56.7,99,82,54,29.85,29.67,2,0,4,0.01
2013-5-12,68.3,60.6,47.7,58.6,43.2,33.4,79,55,31,30.02,29.72,3,1,6,0.00
2013-5-13,62.5,50.4,39.5,43.4,36.2,31.0,91,60,32,30.16,30.01,2,0,7,0.00
2013-5-14,72.4,53.5,35.0,47.9,40.0,32.9,95,64,35,30.21,29.99,2,0,6,0.00
2013-5-15,92.0,69.6,48.7,70.5,55.9,44.7,91,65,37,30.00,29.69,2,0,8,0.00
2013-5-16,86.3,73.5,65.6,68.7,61.5,54.3,97,69,47,29.91,29.76,3,0,6,0.27
2013-5-17,84.3,70.6,60.5,66.6,62.4,58.2,97,78,44,30.09,29.90,1,0,3,0.17
2013-5-18,64.6,62.2,60.8,63.7,61.7,60.5,99,98,97,30.17,30.08,0,0,0,0.17
2013-5-19,66.2,62.5,60.1,65.6,62.3,60.1,100,99,97,30.16,30.04,0,0,0,0.04
2013-5-20,83.2,70.6,64.0,73.8,67.6,63.7,100,91,66,30.08,29.94,2,0,4,0.00
2013-5-21,87.4,73.9,64.9,76.1,69.5,63.8,99,87,67,29.97,29.84,1,0,2,0.00
2013-5-22,90.4,75.2,66.9,75.5,69.9,65.4,99,85,58,29.91,29.79,2,0,7,0.02
2013-5-23,79.5,69.1,62.7,72.4,66.9,61.8,99,93,74,29.87,29.72,1,0,6,0.47
2013-5-24,64.7,59.4,49.5,62.0,50.8,36.3,99,75,47,30.14,29.74,4,1,10,0.00
2013-5-25,71.3,54.8,39.6,45.4,38.4,33.7,82,57,27,30.24,30.09,4,1,10,0.00
2013-5-26,77.9,59.2,43.7,49.8,42.4,38.6,91,58,25,30.23,30.10,2,0,5,0.00
2013-5-27,65.6,56.3,42.9,56.2,49.2,40.7,94,78,53,30.26,30.15,0,0,0,0.00
2013-5-28,88.7,67.7,51.5,72.0,60.9,50.4,97,81,53,30.18,30.03,2,0,6,0.00
2013-5-29,92.4,76.9,63.6,72.1,66.4,61.9,96,73,46,30.10,30.03,2,0,4,0.00
2013-5-30,93.5,77.4,64.1,73.4,66.7,61.7,94,72,43,30.15,30.08,2,0,4,0.00
2013-5-31,92.0,76.0,61.2,72.7,65.9,59.6,96,74,45,30.13,30.00,2,0,5,0.00
2013-6-1,91.4,76.7,63.3,74.4,67.6,61.8,96,75,54,30.02,29.89,2,0,4,0.00
2013-6-2,82.4,74.2,68.4,74.8,68.5,64.2,91,83,71,29.90,29.82,1,0,3,0.00
2013-6-3,82.5,72.4,67.6,74.4,68.4,64.7,99,88,65,29.93,29.78,1,0,2,0.17
2013-6-4,78.8,67.2,59.6,64.8,56.5,49.1,96,71,39,30.11,29.92,1,0,3,0.00
2013-6-5,80.1,68.0,57.2,66.9,60.2,53.9,94,77,59,30.13,30.00,1,0,5,0.00
2013-6-6,68.8,63.1,60.0,65.0,60.9,56.2,100,93,72,30.02,29.80,0,0,1,1.88
2013-6-7,70.0,65.8,63.7,70.0,65.7,63.7,100,100,98,29.80,29.58,0,0,1,0.66
2013-6-8,84.2,70.2,63.0,70.1,64.6,60.2,99,84,53,30.05,29.73,1,0,4,0.02
2013-6-9,82.0,69.6,60.5,75.0,67.1,59.9,99,92,77,30.15,30.03,1,0,2,1.52
2013-6-10,83.4,71.5,67.3,76.3,70.3,67.0,100,96,74,30.07,29.77,2,0,6,0.92
2013-6-11,85.4,72.9,64.4,69.8,65.7,62.6,100,80,52,29.86,29.79,3,0,7,0.00
2013-6-12,92.7,77.4,63.4,78.1,69.6,62.1,97,79,54,29.87,29.74,3,0,7,0.00
2013-6-13,84.3,74.2,67.8,75.0,68.4,57.7,97,83,64,29.77,29.49,3,0,7,0.03
2013-6-14,80.4,69.9,63.0,63.7,58.4,54.3,81,67,49,29.97,29.63,2,0,5,0.00
2013-6-15,86.5,70.5,56.6,65.7,59.7,54.4,96,72,42,30.07,29.95,1,0,5,0.00
2013-6-16,85.0,71.8,60.0,73.3,66.1,58.6,97,83,59,30.00,29.88,1,0,4,0.08
2013-6-17,87.9,71.5,64.6,75.8,68.5,62.5,99,91,65,29.94,29.85,3,0,7,0.34
2013-6-18,71.8,67.4,63.5,71.5,67.1,63.2,100,99,97,29.90,29.76,1,0,1,0.76
2013-6-19,75.9,67.2,60.4,70.7,65.3,60.1,100,94,79,30.12,29.86,1,0,1,0.04
2013-6-20,79.8,70.2,65.1,69.1,65.4,60.6,99,86,66,30.24,30.12,1,0,4,0.01
2013-6-21,84.5,70.8,58.7,68.4,61.9,55.7,96,75,53,30.26,30.18,2,0,4,0.00
2013-6-22,87.9,72.2,59.1,74.1,66.5,58.0,98,84,58,30.23,30.09,1,0,3,0.00
2013-6-23,88.1,76.3,68.2,76.8,71.1,66.9,98,85,64,30.16,30.05,1,0,4,0.00
2013-6-24,91.1,76.6,68.0,77.7,71.9,67.1,99,86,63,30.11,30.00,1,0,3,0.00
2013-6-25,93.8,79.5,68.4,77.2,72.2,66.9,97,80,52,30.03,29.88,1,0,2,0.00
2013-6-26,92.3,74.5,68.4,77.0,71.2,67.0,99,91,57,29.89,29.80,5,0,5,0.35
2013-6-27,85.3,73.4,66.8,75.1,70.3,66.5,100,91,68,29.83,29.61,2,0,3,0.06
2013-6-28,92.8,78.9,68.5,75.7,69.4,62.8,96,75,46,29.63,29.43,2,0,5,0.00
2013-6-29,89.8,76.0,64.0,71.8,66.0,60.8,93,73,49,29.66,29.50,1,0,4,0.00
2013-6-30,86.7,73.6,65.5,77.4,70.1,64.4,98,89,71,29.82,29.66,1,0,4,0.01
2013-7-1,82.9,74.8,69.8,76.1,71.9,68.7,99,91,77,29.93,29.80,1,0,4,0.06
2013-7-2,77.8,73.8,70.5,74.5,72.1,70.0,99,94,85,30.13,29.92,1,0,5,0.07
2013-7-3,84.4,73.8,70.6,79.4,72.9,70.3,100,97,77,30.20,30.11,1,0,3,0.02
2013-7-4,89.2,77.5,70.9,79.0,74.0,70.9,100,90,65,30.22,30.13,2,0,4,0.00
2013-7-5,89.9,77.8,69.7,78.6,73.7,69.1,99,88,66,30.20,30.10,2,0,4,0.01
2013-7-6,91.0,78.6,69.6,78.1,73.2,69.3,100,85,59,30.17,30.05,1,0,5,0.00
2013-7-7,91.3,76.9,70.0,78.3,72.4,68.9,98,87,63,30.09,29.97,3,0,7,0.00
2013-7-8,86.5,74.0,67.6,74.1,70.6,67.0,99,90,58,30.10,30.03,1,0,3,0.00
2013-7-9,85.5,76.3,68.5,77.5,73.2,68.2,100,91,76,30.08,29.98,0,0,2,0.01
2013-7-10,86.8,75.8,71.8,79.9,74.4,71.5,99,96,77,30.00,29.85,2,0,4,0.00
2013-7-11,83.3,74.4,70.2,77.8,72.9,69.9,100,96,80,29.89,29.82,1,0,1,0.00
2013-7-12,70.2,68.1,65.2,70.1,67.7,65.2,100,99,95,30.03,29.87,1,0,2,0.00
2013-7-13,82.5,72.8,65.0,75.3,70.9,64.7,100,94,77,30.21,30.02,1,0,3,0.01
2013-7-14,87.8,76.8,71.1,77.1,73.4,71.1,100,90,70,30.31,30.21,1,0,2,0.72
2013-7-15,93.2,79.0,68.2,79.7,73.6,67.9,100,85,56,30.29,30.17,1,0,3,0.00
2013-7-16,92.5,80.4,70.8,81.6,76.2,70.2,98,88,68,30.22,30.13,0,0,1,0.02
2013-7-17,87.5,79.8,73.0,81.9,77.0,72.2,98,91,72,30.19,30.07,2,0,3,0.16
2013-7-18,93.9,81.4,72.2,82.3,77.1,71.9,100,88,62,30.11,29.98,1,0,2,0.00
2013-7-19,95.0,81.1,73.0,82.8,76.6,72.7,99,87,64,30.00,29.85,1,0,4,0.00
2013-7-20,94.7,79.8,73.5,80.1,74.5,71.2,97,85,57,29.89,29.80,1,0,4,0.00
2013-7-21,91.4,75.8,70.3,78.3,72.6,69.1,99,90,60,29.92,29.85,5,0,5,0.30
2013-7-22,89.6,77.4,70.7,79.4,74.2,70.6,100,91,69,29.91,29.72,2,0,5,0.02
2013-7-23,90.2,78.5,71.0,76.4,72.5,70.1,98,83,57,29.73,29.62,1,0,3,0.00
2013-7-24,84.5,74.2,68.5,75.9,70.8,67.1,99,90,70,29.88,29.65,0,0,3,0.28
2013-7-25,79.2,69.6,63.4,68.9,64.5,59.7,98,85,64,30.02,29.86,1,0,2,0.00
2013-7-26,84.0,69.6,56.9,70.3,63.7,56.1,99,83,55,30.08,29.99,1,0,3,0.00
2013-7-27,76.3,70.7,63.8,72.9,68.6,63.2,99,93,84,30.02,29.89,0,0,2,0.02
2013-7-28,85.1,73.3,68.3,75.2,70.1,67.4,98,90,61,29.95,29.85,1,0,3,0.02
2013-7-29,83.7,71.3,60.6,69.8,62.8,54.4,98,77,45,30.14,29.95,1,0,4,0.00
2013-7-30,83.6,69.7,58.0,68.7,63.2,56.8,97,82,52,30.20,30.11,1,0,3,0.00
2013-7-31,79.6,69.9,64.1,72.4,67.3,63.2,98,92,75,30.12,29.98,0,0,0,0.02
2013-8-1,85.3,71.3,67.7,76.9,69.9,67.4,100,96,74,29.98,29.78,2,0,2,0.62
2013-8-2,87.0,73.4,63.1,72.0,67.1,62.8,100,83,53,29.95,29.85,1,0,2,0.00
2013-8-3,83.4,72.4,66.5,72.3,67.2,62.1,98,85,63,29.95,29.88,1,0,1,0.01
2013-8-4,82.6,70.3,61.6,67.9,63.2,57.9,98,80,47,30.02,29.89,2,0,6,0.00
2013-8-5,82.4,66.9,55.5,66.7,60.9,54.2,97,82,54,30.09,29.98,1,0,3,0.00
2013-8-6,79.6,70.6,64.8,72.7,67.7,64.2,99,91,75,30.01,29.95,1,0,2,0.02
2013-8-7,85.7,75.5,69.2,75.6,71.4,68.3,98,88,68,30.03,29.95,1,0,7,0.01
2013-8-8,84.1,75.2,69.7,76.6,72.9,69.1,99,93,75,30.00,29.94,1,0,4,0.02
2013-8-9,93.8,79.3,70.6,80.1,74.6,70.3,100,87,55,29.94,29.84,2,0,4,0.00
2013-8-10,80.1,75.3,72.1,76.4,73.5,71.5,99,94,86,30.07,29.92,1,0,5,0.19
2013-8-11,79.1,73.3,68.2,75.6,71.8,67.6,100,95,87,30.09,29.98,0,0,1,0.38
2013-8-12,88.2,76.4,68.7,76.6,72.6,68.5,100,89,63,30.00,29.88,1,0,1,0.00
2013-8-13,86.8,75.0,70.7,76.3,72.8,68.9,100,93,65,29.88,29.71,1,0,3,0.10
2013-8-14,76.4,66.8,57.4,69.5,58.5,51.9,96,76,54,30.09,29.79,1,0,4,0.01
2013-8-15,77.3,61.9,50.6,61.4,55.7,49.8,99,82,49,30.17,30.07,1,0,4,0.00
2013-8-16,76.0,63.1,51.3,63.1,57.7,50.5,99,84,57,30.18,30.10,1,0,3,0.00
2013-8-17,74.4,63.8,54.4,65.2,60.1,53.6,98,88,69,30.23,30.16,0,0,2,0.01
2013-8-18,66.5,63.7,60.7,65.6,63.2,60.4,100,98,95,30.22,30.15,0,0,0,1.41
2013-8-19,74.0,67.5,62.8,71.5,66.6,62.5,100,97,89,30.18,30.04,1,0,1,0.03
2013-8-20,85.3,73.1,64.9,76.0,70.1,64.6,100,91,68,30.15,30.06,1,0,3,0.00
2013-8-21,86.6,73.4,66.2,77.5,70.8,65.9,100,92,70,30.18,30.05,1,0,3,0.31
2013-8-22,86.5,73.6,65.5,75.8,69.3,65.2,99,87,62,30.07,29.93,1,0,2,0.00
2013-8-23,71.2,66.4,60.4,71.2,66.0,60.1,100,99,96,30.10,29.91,1,0,2,1.26
2013-8-24,79.0,65.1,54.3,69.4,61.2,54.0,100,89,61,30.30,30.10,0,0,2,0.00
2013-8-25,80.6,66.5,56.1,68.2,62.0,55.4,100,87,60,30.38,30.25,1,0,4,0.00
2013-8-26,86.3,70.4,58.4,71.1,64.4,57.8,100,83,50,30.29,30.01,1,0,3,0.00
2013-8-27,88.4,73.8,64.0,77.8,69.6,63.1,98,88,66,30.01,29.88,1,0,3,0.00
2013-8-28,74.8,72.7,71.3,73.6,71.3,68.1,100,95,82,29.93,29.78,0,0,1,0.61
2013-8-29,81.8,73.8,68.9,75.3,72.1,68.3,100,95,80,29.99,29.78,0,0,2,0.01
2013-8-30,87.0,73.6,64.8,75.3,70.1,64.5,100,90,65,30.01,29.86,2,0,4,0.00
2013-8-31,89.0,73.1,67.0,79.3,70.8,66.6,99,93,69,29.90,29.77,3,0,6,0.68
2013-9-1,84.7,72.8,65.9,77.4,71.0,65.9,100,95,70,29.83,29.74,1,0,3,0.01
2013-9-2,88.7,76.6,69.2,77.9,72.3,68.9,99,88,64,29.80,29.70,1,0,3,0.00
2013-9-3,85.5,74.2,67.9,74.1,69.9,61.7,98,87,62,29.92,29.72,1,0,3,0.00
2013-9-4,81.7,68.4,57.6,68.7,63.0,56.8,98,84,54,30.07,29.92,1,0,4,0.00
2013-9-5,85.5,69.1,56.2,70.5,62.8,55.6,99,83,54,30.10,29.97,1,0,2,0.00
2013-9-6,76.7,64.0,55.3,62.1,57.8,53.8,97,82,50,30.22,30.09,1,0,3,0.00
2013-9-7,81.2,65.2,52.5,68.7,60.9,51.7,99,87,62,30.12,29.91,1,0,3,0.00
2013-9-8,87.4,71.9,61.0,74.2,67.0,60.1,98,86,60,29.99,29.84,1,0,3,0.00
2013-9-9,77.7,69.9,65.4,69.5,65.0,58.8,97,85,68,30.16,29.99,1,0,4,0.00
2013-9-10,90.9,75.2,64.3,78.1,70.8,63.7,99,88,63,30.15,30.07,1,0,3,0.00
2013-9-11,92.2,77.8,67.9,79.0,73.5,67.3,100,88,64,30.12,29.98,1,0,3,0.00
2013-9-12,90.6,75.6,67.9,79.5,71.6,67.1,100,89,60,29.98,29.71,1,0,3,0.02
2013-9-13,78.4,68.7,59.0,67.8,60.6,53.3,95,76,46,29.92,29.69,2,0,4,0.00
2013-9-14,69.4,58.4,49.4,54.8,50.3,46.0,95,76,50,30.14,29.92,2,0,4,0.00
2013-9-15,78.0,60.4,45.3,63.7,54.9,44.2,99,84,55,30.22,30.06,2,0,5,0.00
2013-9-16,68.1,61.2,55.4,65.2,58.7,53.8,98,92,72,30.21,30.04,2,0,3,0.01
2013-9-17,68.8,57.2,48.6,58.0,52.7,47.1,98,86,65,30.39,30.21,1,0,1,0.00
2013-9-18,71.5,54.3,41.3,58.5,49.5,40.2,98,86,53,30.32,30.17,1,0,2,0.00
2013-9-19,76.8,61.6,50.7,65.1,57.5,49.6,98,87,64,30.18,30.06,1,0,3,0.00
2013-9-20,75.3,65.1,56.0,68.4,62.4,55.2,98,91,75,30.07,29.92,1,0,3,0.00
2013-9-21,67.4,65.5,61.3,67.1,64.8,60.7,99,98,96,29.92,29.65,1,0,3,0.40
2013-9-22,72.8,61.5,53.2,61.9,57.6,52.9,100,88,60,29.93,29.71,1,0,4,0.01
2013-9-23,68.8,55.7,46.3,57.2,51.2,45.3,99,86,59,30.08,29.93,1,0,2,0.00
2013-9-24,72.5,59.1,50.6,61.3,54.9,49.6,98,87,63,30.09,29.92,1,0,3,0.00
2013-9-25,71.3,59.2,49.5,61.4,55.5,48.8,99,89,65,29.96,29.86,0,0,0,0.00
2013-9-26,75.1,62.3,54.1,59.7,56.9,52.7,97,84,53,30.06,29.88,1,0,2,0.00
2013-9-27,73.3,59.0,47.4,62.2,55.4,46.6,99,89,63,30.20,30.05,1,0,3,0.00
2013-9-28,65.0,60.5,56.0,59.4,57.7,55.2,98,91,79,30.27,30.18,0,0,0,0.00
2013-9-29,73.2,59.7,50.6,58.5,54.7,49.8,99,85,54,30.18,30.03,1,0,3,0.00
2013-9-30,76.4,59.8,47.2,62.5,55.1,46.3,99,86,58,30.08,29.95,1,0,3,0.00
2013-10-1,79.5,66.1,57.4,65.4,60.9,56.6,98,85,55,30.06,29.97,1,0,1,0.00
2013-10-2,83.9,66.2,53.5,65.2,60.0,52.7,99,83,50,30.08,29.99,1,0,4,0.00
2013-10-3,80.6,66.7,56.4,70.1,63.1,55.6,98,89,65,30.10,30.02,0,0,2,0.00
2013-10-4,86.3,69.4,57.4,69.9,63.9,56.6,100,85,53,30.08,29.99,1,0,3,0.00
2013-10-5,87.5,71.1,59.2,70.8,65.4,58.3,99,84,55,30.08,29.97,1,0,4,0.00
2013-10-6,85.4,71.2,60.0,70.3,65.0,59.1,99,83,54,30.00,29.87,2,0,5,0.00
2013-10-7,71.2,66.9,56.0,69.4,63.1,48.6,99,88,72,30.03,29.74,1,0,5,0.71
2013-10-8,66.0,55.3,46.2,54.1,49.8,44.8,97,83,59,30.25,30.03,1,0,3,0.00
2013-10-9,59.0,53.3,48.9,54.6,51.1,47.8,98,93,83,30.28,30.18,0,0,1,0.27
2013-10-10,57.3,54.7,51.5,57.0,54.4,51.0,99,99,98,30.18,29.96,0,0,2,0.94
2013-10-11,66.0,59.3,55.8,62.6,58.0,55.5,99,95,85,29.97,29.91,1,0,4,0.07
2013-10-12,63.4,61.4,59.4,62.9,60.9,58.8,100,98,95,30.12,29.95,1,0,2,0.07
2013-10-13,60.8,59.4,57.9,60.8,59.2,57.6,100,99,98,30.27,30.12,1,0,1,0.18
2013-10-14,65.6,59.2,53.9,61.6,57.9,53.3,100,95,81,30.30,30.19,1,0,1,0.00
2013-10-15,70.3,56.9,48.0,59.8,53.9,47.7,100,91,65,30.21,30.07,0,0,0,0.01
2013-10-16,70.8,62.2,57.4,64.3,59.5,55.7,97,91,78,30.07,29.90,1,0,2,0.00
2013-10-17,72.5,63.0,57.1,66.8,61.0,55.6,100,94,79,29.89,29.73,1,0,6,0.02
2013-10-18,68.0,56.8,48.1,56.0,47.5,43.1,95,73,47,30.01,29.81,3,0,3,0.00
2013-10-19,62.2,52.5,44.6,56.2,49.7,43.5,98,91,75,29.98,29.77,1,0,2,0.00
2013-10-20,64.4,51.6,40.2,48.6,40.8,36.4,92,69,40,30.09,29.86,1,0,4,0.00
2013-10-21,68.6,49.6,35.4,49.6,42.7,34.3,98,80,46,30.14,29.94,2,0,4,0.00
2013-10-22,70.8,56.6,45.0,53.5,47.8,43.9,98,75,49,29.94,29.77,2,0,6,0.01
2013-10-23,59.3,49.1,42.9,51.0,43.0,34.4,97,81,58,29.92,29.64,2,0,6,0.29
2013-10-24,54.7,45.2,38.3,37.3,33.8,28.1,83,65,47,30.15,29.92,2,0,4,0.00
2013-10-25,54.6,42.0,33.4,33.8,30.7,28.2,89,66,39,30.33,30.14,2,0,4,0.00
2013-10-26,58.0,42.3,28.0,37.1,31.7,26.2,95,70,40,30.31,29.95,2,0,5,0.00
2013-10-27,62.9,47.9,36.2,43.2,39.1,33.9,93,74,47,30.12,29.96,1,0,6,0.00
2013-10-28,65.1,47.1,34.4,48.9,40.8,32.9,96,81,51,30.26,30.12,1,0,3,0.00
2013-10-29,66.9,51.1,39.7,50.0,44.9,38.4,97,81,53,30.36,30.25,1,0,4,0.00
2013-10-30,67.8,55.2,49.7,59.7,52.2,46.9,97,90,73,30.31,30.10,0,0,1,0.03
2013-10-31,68.3,60.2,51.5,61.7,56.9,51.0,98,89,76,30.15,29.75,1,0,5,0.00
2013-11-1,77.0,67.5,56.9,63.9,59.9,53.8,96,78,46,29.75,29.56,2,1,9,0.06
2013-11-2,68.5,56.7,47.0,55.7,45.2,36.9,97,69,39,29.89,29.61,3,0,7,0.00
2013-11-3,59.6,49.7,34.9,41.1,35.2,29.0,86,59,34,30.39,29.89,3,0,6,0.00
2013-11-4,48.1,38.4,32.0,31.1,28.9,26.4,90,70,48,30.61,30.39,1,0,2,0.00
2013-11-5,53.5,43.8,31.5,45.3,36.6,29.4,93,77,56,30.61,30.46,1,0,1,0.00
2013-11-6,68.3,54.7,47.9,54.0,49.3,45.4,94,83,60,30.46,30.06,2,0,4,0.00
2013-11-7,63.6,51.7,43.7,59.6,44.1,28.0,98,78,47,30.09,29.87,4,1,9,0.02
2013-11-8,52.8,43.0,31.3,32.2,27.7,25.1,85,56,36,30.31,30.09,4,1,7,0.00
2013-11-9,56.6,41.2,26.5,33.7,29.7,24.5,93,67,41,30.35,30.06,2,0,6,0.00
2013-11-10,66.8,51.7,39.2,39.6,32.3,27.6,72,50,26,30.24,29.95,4,1,10,0.00
2013-11-11,60.6,46.3,33.4,33.4,30.6,27.4,84,57,33,30.30,30.01,3,0,4,0.00
2013-11-12,47.3,40.0,31.2,37.0,25.6,16.8,75,56,46,30.41,29.93,5,1,8,0.00
2013-11-13,44.1,35.0,27.8,21.9,19.2,15.7,75,53,36,30.51,30.39,4,1,10,0.00
2013-11-14,62.3,42.0,24.7,29.3,21.5,13.6,84,48,23,30.39,30.21,2,0,5,0.00
2013-11-15,61.0,45.8,29.4,46.2,30.8,21.7,95,59,30,30.26,30.15,2,0,3,0.10
2013-11-16,54.3,48.4,40.5,51.1,47.0,39.6,98,95,88,30.29,30.21,1,0,2,0.08
2013-11-17,60.4,55.1,50.9,59.8,54.6,50.4,99,98,96,30.21,29.75,2,0,3,0.02
2013-11-18,66.5,59.1,50.0,60.6,41.5,27.7,98,55,31,29.93,29.69,3,1,9,0.06
2013-11-19,49.9,43.6,34.4,30.8,28.6,27.0,79,56,44,30.35,29.94,3,1,8,0.00
2013-11-20,46.0,36.4,30.7,29.1,27.2,24.5,90,71,48,30.53,30.35,2,0,3,0.00
2013-11-21,48.5,42.1,33.6,41.2,36.1,27.3,88,79,71,30.55,30.38,0,0,1,0.00
2013-11-22,66.0,55.4,44.7,56.3,49.6,40.7,90,81,70,30.38,29.99,1,0,2,0.00
2013-11-23,60.1,48.6,34.3,53.5,32.1,16.8,82,55,29,30.20,29.99,4,1,10,0.00
2013-11-24,34.3,27.3,20.7,23.0,8.8,6.4,65,46,35,30.54,30.20,6,2,11,0.00
2013-11-25,36.2,27.5,17.9,20.5,14.5,9.2,85,60,39,30.57,30.33,1,0,4,0.00
2013-11-26,37.8,34.7,33.7,37.3,29.0,18.1,98,81,52,30.34,29.59,0,0,1,1.09
2013-11-27,42.5,37.9,28.7,41.6,31.7,15.4,98,79,56,30.09,29.50,6,2,12,0.16
2013-11-28,38.7,30.0,20.9,22.7,18.9,14.4,88,64,48,30.45,30.09,2,0,4,0.00
2013-11-29,43.4,30.2,19.8,27.6,22.5,17.5,93,75,48,30.71,30.43,1,0,4,0.00
2013-11-30,39.1,28.1,18.8,26.7,22.1,16.6,93,79,58,30.70,30.37,1,0,2,0.00
2013-12-1,52.3,35.0,20.0,36.0,27.3,17.8,93,76,46,30.37,30.00,0,0,1,0.00
2013-12-2,48.2,42.4,39.1,37.6,35.6,33.0,86,77,65,30.00,29.84,0,0,1,0.00
2013-12-3,55.7,43.5,35.0,42.5,37.7,33.1,93,81,60,29.98,29.86,1,0,3,0.00
2013-12-4,60.2,48.8,38.9,52.2,44.8,36.1,91,87,74,30.05,29.96,1,0,4,0.00
2013-12-5,64.6,58.3,51.7,61.9,55.8,49.1,95,91,85,30.04,29.91,2,0,2,0.00
2013-12-6,64.8,53.7,42.3,64.2,52.9,41.8,99,97,92,30.11,29.85,4,0,4,0.64
2013-12-7,44.6,38.4,29.6,41.8,34.6,26.3,98,87,70,30.51,30.08,3,0,5,0.08
2013-12-8,32.4,30.1,28.5,31.6,27.5,23.5,97,90,76,30.54,30.27,0,0,2,0.00
2013-12-9,38.6,34.9,32.4,38.1,34.3,31.6,98,98,97,30.30,30.01,0,0,1,0.06
2013-12-10,40.1,34.1,29.2,39.5,31.0,20.3,99,89,65,30.22,29.98,3,0,5,0.23
2013-12-11,42.8,34.9,26.6,26.2,21.7,17.1,78,59,45,30.39,30.22,1,0,5,0.02
2013-12-12,36.9,32.3,27.1,23.1,15.0,8.0,70,49,31,30.40,30.23,2,0,7,0.00
2013-12-13,46.0,35.7,27.3,26.2,18.1,12.4,73,49,35,30.30,30.20,3,0,6,0.01
2013-12-14,35.9,34.1,31.5,35.1,31.0,22.6,97,89,65,30.28,29.73,0,0,1,0.33
2013-12-15,48.2,38.8,33.2,38.3,32.0,26.4,98,78,55,29.95,29.62,3,0,7,0.01
2013-12-16,44.4,38.4,32.5,32.3,29.7,27.6,82,71,58,30.14,29.94,1,0,6,0.00
2013-12-17,51.2,36.6,25.9,39.9,31.7,24.0,94,83,62,30.11,29.88,2,0,5,0.00
2013-12-18,42.9,37.2,31.9,32.6,23.7,20.7,88,58,45,30.20,29.98,2,0,7,0.00
2013-12-19,63.0,45.0,29.9,34.4,28.3,19.1,80,54,32,30.18,30.07,3,0,6,0.00
2013-12-20,60.4,49.7,39.6,41.7,35.3,29.3,74,58,41,30.11,29.99,1,0,4,0.00
2013-12-21,68.6,58.4,47.0,60.6,51.0,41.0,87,77,66,30.02,29.89,3,1,6,0.00
2013-12-22,68.6,64.0,59.0,65.1,60.7,57.1,97,89,71,29.98,29.81,4,1,7,0.14
2013-12-23,61.6,55.2,38.9,61.3,51.0,28.5,99,86,65,30.19,29.90,3,0,5,0.24
2013-12-24,41.1,34.0,23.4,29.0,22.0,9.2,81,62,43,30.47,30.17,4,1,8,0.00
2013-12-25,32.4,24.6,17.2,18.6,14.3,10.7,84,65,49,30.56,30.36,1,0,2,0.00
2013-12-26,48.3,32.1,18.2,29.4,21.1,15.3,90,67,38,30.36,30.20,3,0,6,0.00
2013-12-27,50.0,35.9,22.2,26.6,22.7,19.3,89,61,36,30.42,30.31,1,0,5,0.00
2013-12-28,57.4,41.0,25.2,32.6,26.4,21.1,86,60,33,30.35,30.11,2,0,3,0.00
2013-12-29,51.4,44.8,39.6,48.9,41.0,29.6,99,87,56,30.11,29.56,2,0,4,0.02
2013-12-30,48.6,42.1,33.5,39.5,35.1,28.9,90,77,57,30.15,29.81,2,0,3,0.00
2013-12-31,45.9,35.9,27.5,30.8,25.4,18.9,94,68,41,30.32,30.12,4,0,7,0.00
2014-1-1,47.9,35.3,25.4,30.5,24.7,18.6,88,66,49,30.38,30.09,2,0,3,0.00
2014-1-2,38.1,32.3,27.6,33.3,28.9,24.6,96,88,72,30.09,29.59,0,0,1,0.01